STARLINK-1795, 46696

Orbit data source: Space-Track

STARLINK-1795, 46696 is a payload satellite owned by SpaceX/Seattle (US) in LEO that was launched on Sun, 18 Oct 2020 UTC via an FALCON 9 launch vehicle from the Air Force Eastern Test Range (AFETR). Payload-class satellites include a variety of spacecraft equipped with specific instruments for various scientific and technological missions. These include communications satellites like Starlink; space stations such as the ISS; scientific satellites like the Hubble; Earth observation satellites from companies like Planet Labs, Umbra, and HawkEye 360; GPS; miniature CubeSats for education and research; and military/defense satellites.

Loading next visibility...
Identifier
46696, 2020-073AC
Orbit
LEO
Last TLE update
23 hours ago
Origin
Manufacturer
SpaceX/Seattle
Mission
Operational Commercial Communications
Bus & Motor
STARLINK, Unknown motor
Mass
260 kg wet, ~248 kg dry
Launch date (UTC)
2020-10-18 (5 years ago)
Launch vehicle
FALCON 9
Launch site
Air Force Eastern Test Range (AFETR)
Object type
Payload
Rocket body
Debris
Shape & HBR
Box + 1 Pan, 8.86 m
Radar Cross Section
13.562 m², Large (>1 m²)

Expand to show TLE details & history

TLE from 23 hours ago
0 STARLINK-1795
1 46696U 20073AC  25128.33456626  .00003115  00000-0  22793-3 0  9992
2 46696  53.0530 152.4107 0001266  89.1725 270.9409 15.06400823251385
Epoch: 2025-05-08T08:01Z
Definitive object data (Epoch: 2025-05-08T08:01:46.524Z)
Latitude
-0.00004°
Longitude
165.56027°
Altitude
548.074 km
Speed
7.589 km/s
True Right ascension
10h 09m 38s
True Declination
0° 00' 00"
Sunlit
Object was in daylight at TLE epoch
Visualization TLE readout
Latitude
9.85206°
Longitude
-26.21318°
Altitude
547.107 km
Speed
7.591 km/s
Apparent Right ascension
23h 41m 52s
Apparent Declination
-18° 39' 20"
Sunlit
Object is in daylight
Visualization observer readout
Local Sidereal Time
15:12:42
Azimuth
80.733° E
Elevation
-40.205°
Doppler factor
1
Orbital elements
Apogee altitude
548.357 km
Perigee altitude
546.603 km
Semi-major axis
6,925.617 km
Eccentricity
0.0001266
Inclination
53.053°
RAAN
152.4107°
Arg. of periapsis
89.1725°
True anomaly
270.92639°
Mean anomaly
270.9409°
Eccentric anomaly
270.93365°
Mean motion
3.76578 °/min
BSTAR
0.00022793
Orbital period
95.6 mins
Loading maneuver chart data...
Loading SW <> Apogee altitude chart data...
Loading historical data...
Loading historical data...
Loading historical data...
Loading historical data...
Loading historical data...
Loading historical data...
Loading historical data...

STARLINK-1795 Visibility forecast

Observer location: undefined°, undefined°

Span
Click to sort rows by Start time (UTC) header in descending order
Start Az.
Max El. time (UTC)
Max El. Az.
Max El.
End time (UTC)
End Az.
4 mins2025-05-09 08:18:46.160Z338.53° N2025-05-09 08:20:46.160Z8.774° NNE13.519°2025-05-09 08:22:46.160Z38.797° NE
6 mins2025-05-09 09:58:46.160Z334.614° NNW2025-05-09 10:01:46.160Z43.385° NE27.082°2025-05-09 10:04:46.160Z91.892° ESE
5 mins2025-05-09 11:38:46.160Z284.76° WNW2025-05-09 11:40:46.160Z231.698° WSW33.996°2025-05-09 11:43:46.160Z160.762° S
5 mins2025-05-10 03:11:46.160Z182.045° SSW2025-05-10 03:13:46.160Z131.205° SE29.783°2025-05-10 03:16:46.160Z70.985° E
6 mins2025-05-10 04:50:46.160Z271.618° WNW2025-05-10 04:52:46.160Z312.923° NW29.749°2025-05-10 04:56:46.160Z35.707° NE
|